Location: Pic du Midi - T1M
(42.9366°N, 0.1426°E)
Time: 22:08:36
(UTC+01:00)

X-37B - Pass Details

Date: 26 June 2021
Orbit: 383 x 392 km, 45.0° (Epoch: 01 July)

Event Time Altitude Azimuth Distance (km) Brightness Sun altitude
Rises 21:45:42 0° 254° (WSW) 2,245 4.9 -9.8°
Reaches altitude 10° 21:47:45 10° 255° (WSW) 1,393 3.8 -10.0°
Maximum altitude 21:50:53 85° 346° (NNW) 385 0.6 -10.4°
Drops below altitude 10° 21:54:02 10° 74° (ENE) 1,395 3.1 -10.8°
Enters shadow 21:55:54 - 75° (ENE) 2,165 4.1 -11.1°
